Location: Home
(42.5358°N, 72.7383°W)
Time: 10:36:43
(UTC-05:00)

Courier 1B - Pass Details

Date: 08 December 2021
Orbit: 962 x 1209 km, 28.3° (Epoch: 21 January)

Event Time Altitude Azimuth Distance (km) Brightness Sun altitude
Rises 17:53:07 0° 254° (WSW) 4,050 12.5 -17.0°
Reaches altitude 10° 17:56:39 10° 241° (WSW) 3,052 11.3 -17.6°
Maximum altitude 18:02:12 22° 193° (SSW) 2,201 9.6 -18.6°
Drops below altitude 10° 18:07:31 10° 145° (SE) 2,915 9.8 -19.5°
Enters shadow 18:09:16 - 137° (SE) 3,375 10.0 -19.8°
Sets 18:10:49 0° 131° (SE) 3,824 - -20.1°
